Hatteras, NC

5:34 AM EST on December 15, 2019 (GMT -0500)
Mitchell

Weather History for KHSE - August, 2019

Change the Weather History Date:

Friday, August 30, 2019

  Actual Average Record
Temperature  
Mean Temperature 77 °F 78 °F  
Max Temperature 89 °F 83 °F 92 °F (1932)
Min Temperature 65 °F 72 °F 61 °F (1965)
Degree Days  
Heating Degree Days 0 0  
Month to date heating degree days 0 0  
Since 1 June heating degree days 0 3  
Since 1 July heating degree days 0 0  
Cooling Degree Days 12 13  
Month to date cooling degree days 501 407  
Year to date cooling degree days 1801 1295  
Since 1 June cooling degree days 1419 1152  
Growing Degree Days 27 (Base 50)    
Moisture  
Dew Point 64 °F    
Average Humidity 65    
Maximum Humidity 97    
Minimum Humidity 36    
Precipitation  
Precipitation 0.00 in 0.24 in 8.69 in (1999)
Month to date precipitation 7.03 6.68  
Year to date precipitation 38.75 36.94  
Snow  
Snow 0.00 in - - ()
Month to date snowfall 0.0  
Since 1 July snowfall 0.0  
Snow Depth 0.00 in    
Sea Level Pressure  
Sea Level Pressure 30.11 in    
Wind  
Wind Speed 5 mph ()    
Max Wind Speed 12 mph    
Max Gust Speed 13 mph    
Visibility 10.0 miles    
Events      
T = Trace of Precipitation, MM = Missing Value Source: Averaged Metar Reports

Daily Weather History Graph

Daily Weather History Graph

Search for Another Location

Airport or City:

Astronomy

Aug. 30, 2019 Rise Set
Actual Time 6:33 AM EDT 7:32 PM EDT
Civil Twilight 6:07 AM EDT 7:58 PM EDT
Nautical Twilight 5:36 AM EDT 8:29 PM EDT
Astronomical Twilight 5:04 AM EDT 9:00 PM EDT
Moon 6:33 AM EDT (8/30) 8:07 PM EDT (8/30)
Length of Visible Light 13h 51m
Length of Day
12h 59m
New Moon, 0% of the Moon is Illuminated
Aug 30
New Moon
Sep 5
First Quarter
Sep 14
Full
Sep 21
Last Quarter
Sep 28
New

Hourly Weather History & Observations

Time (EDT) Temp. Heat Index Dew Point Humidity Pressure Visibility Wind Dir Wind Speed Gust Speed Precip Events Conditions
12:51 AM 71.1 °F - 69.1 °F 93% 30.08 in 10.0 mi East 5.8 mph - N/A   Clear
1:51 AM 70.0 °F - 68.0 °F 93% 30.07 in 10.0 mi East 3.5 mph - N/A   Clear
2:51 AM 70.0 °F - 68.0 °F 93% 30.06 in 10.0 mi East 4.6 mph - N/A   Clear
3:51 AM 70.0 °F - 64.9 °F 84% 30.05 in 10.0 mi East 4.6 mph - N/A   Clear
4:51 AM 66.9 °F - 63.0 °F 87% 30.06 in 10.0 mi East 3.5 mph - N/A   Clear
6:51 AM 68.0 °F - 64.0 °F 87% 30.09 in 10.0 mi East 4.6 mph - N/A   Clear
7:51 AM 75.0 °F - 69.1 °F 82% 30.11 in 10.0 mi East 3.5 mph - N/A   Clear
8:51 AM 81.0 °F 82.2 °F 63.0 °F 54% 30.12 in 10.0 mi ESE 6.9 mph - N/A   Clear
9:51 AM 82.9 °F 84.0 °F 63.0 °F 51% 30.12 in 10.0 mi ESE 6.9 mph - N/A   Clear
10:51 AM 84.0 °F 84.5 °F 62.1 °F 47% 30.12 in 10.0 mi ESE 6.9 mph - N/A   Clear
11:51 AM 88.0 °F 87.6 °F 60.1 °F 39% 30.12 in 10.0 mi SE 5.8 mph - N/A   Clear
12:51 PM 86.0 °F 85.7 °F 60.1 °F 41% 30.12 in 10.0 mi SE 6.9 mph - N/A   Clear
1:51 PM 88.0 °F 89.6 °F 64.9 °F 46% 30.13 in 10.0 mi SSE 4.6 mph - N/A   Clear
2:51 PM 88.0 °F 86.9 °F 57.9 °F 36% 30.12 in 10.0 mi SSE 6.9 mph - N/A   Clear
3:51 PM 84.9 °F 86.1 °F 64.0 °F 49% 30.10 in 10.0 mi ESE 10.4 mph - N/A   Clear
4:51 PM 84.9 °F 87.1 °F 66.0 °F 53% 30.09 in 10.0 mi ESE 9.2 mph - N/A   Clear
5:51 PM 82.9 °F 84.6 °F 64.9 °F 54% 30.09 in 10.0 mi ESE 9.2 mph - N/A   Clear
6:51 PM 81.0 °F 82.5 °F 64.0 °F 56% 30.11 in 10.0 mi East 6.9 mph - N/A   Clear
7:51 PM 75.9 °F - 64.0 °F 67% 30.12 in 10.0 mi East 4.6 mph - N/A   Clear
8:51 PM 73.9 °F - 62.1 °F 66% 30.13 in 10.0 mi East 5.8 mph - N/A   Clear
9:51 PM 75.0 °F - 64.0 °F 69% 30.14 in 10.0 mi ENE 6.9 mph - N/A   Clear
10:51 PM 73.0 °F - 64.9 °F 76% 30.15 in 10.0 mi East 4.6 mph - N/A   Clear
11:51 PM 73.0 °F - 66.0 °F 79% 30.16 in 10.0 mi East 3.5 mph - N/A   Clear